Valentine, NE

9:06 PM CDT on April 29, 2017 (GMT -0500)
Miller Field

Weather History for KVTN - November, 2012

Change the Weather History Date:

Thursday, November 8, 2012

  Actual Average Record
Temperature  
Mean Temperature 44 °F 38 °F  
Max Temperature 56 °F 52 °F 86 °F (1999)
Min Temperature 32 °F 25 °F -3 °F (1936)
Degree Days  
Heating Degree Days 21 27  
Month to date heating degree days 183 200  
Since 1 July heating degree days 853 902  
Cooling Degree Days 0 0  
Month to date cooling degree days 0 0  
Year to date cooling degree days 1303 821  
Moisture  
Dew Point 33 °F    
Average Humidity 68    
Maximum Humidity 89    
Minimum Humidity 46    
Precipitation  
Precipitation 0.00 in 0.02 in 0.78 in (1919)
Month to date precipitation 0.01 0.21  
Year to date precipitation 9.93 19.21  
Snow  
Snow 0.00 in 0.20 in 9.10 in (1919)
Month to date snowfall 0.0 1.3  
Since 1 July snowfall 3.0 3.5  
Since 1 September snowfall 3.0 3.5  
Snow Depth 0.00 in    
Sea Level Pressure  
Sea Level Pressure 29.93 in    
Wind  
Wind Speed 12 mph (North)    
Max Wind Speed 22 mph    
Max Gust Speed 29 mph    
Visibility 8 miles    
Events      
T = Trace of Precipitation, MM = Missing Value Source: NWS Daily Summary

Daily Weather History Graph

Daily Weather History Graph

Search for Another Location

Airport or City:

Trip Planner

Search our weather history database for the weather conditions in past years. The results will help you decide how hot, cold, wet, or windy it might be!

Date:

Astronomy

Nov. 08, 2012 Rise Set
Actual Time 7:26 AM CST 5:25 PM CST
Civil Twilight 6:56 AM CST 5:55 PM CST
Nautical Twilight 6:22 AM CST 6:29 PM CST
Astronomical Twilight 5:48 AM CST 7:02 PM CST
Moon 1:14 AM CST (11/8) 2:14 PM CST (11/8)
Length of Visible Light 10h 59m
Length of Day
9h 59m
Waning Crescent, 32% of the Moon is Illuminated
Nov 8
Waning Crescent
Nov 13
New
Nov 20
First Quarter
Nov 28
Full
Dec 6
Last Quarter

Hourly Weather History & Observations

Time (CST) Temp. Windchill Dew Point Humidity Pressure Visibility Wind Dir Wind Speed Gust Speed Precip Events Conditions
12:52 AM 48.9 °F - 32.0 °F 52% 29.76 in 10.0 mi SW 16.1 mph - N/A   Clear
1:52 AM 46.4 °F 42.9 °F 33.8 °F 62% 29.76 in 10.0 mi WSW 6.9 mph - N/A   Clear
2:52 AM 39.9 °F 36.7 °F 30.9 °F 70% 29.76 in 10.0 mi West 4.6 mph - N/A   Clear
3:52 AM 37.9 °F 34.4 °F 30.9 °F 76% 29.77 in 10.0 mi WSW 4.6 mph - N/A   Clear
4:52 AM 37.0 °F 30.4 °F 30.9 °F 79% 29.81 in 10.0 mi West 9.2 mph - N/A   Clear
5:52 AM 39.9 °F 33.4 °F 28.9 °F 65% 29.86 in 10.0 mi NW 10.4 mph - N/A   Clear
6:52 AM 44.1 °F 37.1 °F 32.0 °F 63% 29.89 in 10.0 mi NW 15.0 mph 23.0 mph N/A   Clear
7:52 AM 43.0 °F 36.8 °F 33.1 °F 68% 29.94 in 10.0 mi NW 11.5 mph 18.4 mph N/A   Clear
8:52 AM 46.9 °F - 35.1 °F 63% 29.98 in 10.0 mi NNW 13.8 mph - N/A   Clear
9:52 AM 50.0 °F - 35.1 °F 57% 29.97 in 10.0 mi North 18.4 mph 27.6 mph N/A   Clear
10:52 AM 52.0 °F - 35.1 °F 53% 29.98 in 10.0 mi North 17.3 mph 25.3 mph N/A   Clear
11:52 AM 54.0 °F - 35.1 °F 49% 29.98 in 10.0 mi North 13.8 mph 25.3 mph N/A   Clear
12:52 PM 55.0 °F - 36.0 °F 49% 29.96 in 10.0 mi North 19.6 mph 25.3 mph N/A   Clear
1:52 PM 55.0 °F - 36.0 °F 49% 29.95 in 10.0 mi North 16.1 mph 23.0 mph N/A   Clear
2:52 PM 55.0 °F - 36.0 °F 49% 29.96 in 10.0 mi North 15.0 mph 23.0 mph N/A   Clear
3:52 PM 53.1 °F - 35.1 °F 50% 29.96 in 10.0 mi NNE 15.0 mph - N/A   Clear
4:52 PM 48.9 °F - 34.0 °F 56% 29.98 in 10.0 mi NNE 12.7 mph - N/A   Clear
5:52 PM 44.1 °F 38.6 °F 32.0 °F 63% 29.99 in 10.0 mi NE 10.4 mph - N/A   Clear
6:52 PM 41.0 °F 34.7 °F 32.0 °F 70% 29.99 in 10.0 mi NE 10.4 mph - N/A   Clear
7:52 PM 37.9 °F 30.0 °F 30.9 °F 76% 30.00 in 10.0 mi NE 12.7 mph - N/A   Clear
8:52 PM 35.1 °F 29.3 °F 30.0 °F 82% 30.01 in 10.0 mi NE 6.9 mph - N/A   Clear
9:52 PM 32.0 °F 24.8 °F 28.9 °F 88% 29.99 in 8.0 mi NE 8.1 mph - N/A   Clear
10:02 PM 32.0 °F 25.6 °F 28.4 °F 87% 29.95 in 8.0 mi NE 6.9 mph - N/A   Scattered Clouds
10:08 PM 33.8 °F 27.0 °F 30.2 °F 87% 29.95 in 8.0 mi NE 8.1 mph - N/A   Mostly Cloudy
10:52 PM 33.1 °F 24.9 °F 30.9 °F 92% 29.99 in 5.0 mi NE 10.4 mph - N/A   Overcast
11:14 PM 33.8 °F 25.8 °F 32.0 °F 93% 29.93 in 2.5 mi ENE 10.4 mph - N/A   Overcast
11:26 PM 33.8 °F 27.0 °F 32.0 °F 93% 29.94 in 1.5 mi ENE 8.1 mph - N/A   Overcast
11:47 PM 33.8 °F 27.0 °F 33.8 °F 100% 29.94 in 1.0 mi ENE 8.1 mph - N/A   Overcast
11:52 PM 34.0 °F 28.8 °F 33.1 °F 96% 29.98 in 0.8 mi NE 5.8 mph - N/A   Overcast